When you browse on this site, cookies collect data to enhance your experience and personalize the content and advertising you see.
Visit our Privacy Policy to learn more. By continuing to use the site, you agree to this use of cookies and data.
  • In Hungary
  • List of Countries
  • For 7 days
  • Water Temperature
  • Weather Map
  • News
  • Weather Widgets
  • user-avatar
    Login

    Hourly Weather Vernon

    Today, 12 November, Tuesday

    Time Temperature Precipitation Wind Pressure Humidity
    00:00 +4°C° 0 mm 0 mps 727 mmHg 77%
    01:00 +3°C° 0 mm 0 mps 727 mmHg 78%
    02:00 +3°C° 0.4 mm 0 mps 726 mmHg 83%
    03:00 +3°C° 0.4 mm 0 mps 725 mmHg 88%
    04:00 +3°C° 0 mm 0 mps 725 mmHg 95%
    05:00 +3°C° 2.3 mm 0 mps 724 mmHg 96%
    06:00 +3°C° 2.3 mm 0 mps 723 mmHg 97%
    07:00 +3°C° 2.3 mm 0 mps 723 mmHg 98%
    08:00 +3°C° 1.3 mm 0 mps 723 mmHg 98%
    09:00 +4°C° 1.3 mm 1 mps 722 mmHg 97%
    10:00 +5°C° 1.3 mm 1 mps 722 mmHg 97%
    11:00 +4°C° 0.4 mm 0 mps 722 mmHg 97%
    12:00 +4°C° 0.4 mm 0 mps 722 mmHg 98%
    13:00 +5°C° 0.4 mm 0 mps 722 mmHg 98%
    14:00 +5°C° 0.2 mm 0 mps 722 mmHg 98%
    15:00 +5°C° 0.2 mm 0 mps 722 mmHg 99%
    16:00 +5°C° 0.2 mm 0 mps 722 mmHg 99%
    17:00 +5°C° 0 mm 0 mps 723 mmHg 99%
    18:00 +5°C° 0 mm 0 mps 723 mmHg 99%
    19:00 +5°C° 0 mm 0 mps 723 mmHg 99%
    20:00 +5°C° 0 mm 0 mps 724 mmHg 99%
    21:00 +5°C° 0 mm 0 mps 724 mmHg 98%
    22:00 +5°C° 0 mm 0 mps 725 mmHg 98%
    23:00 +5°C° 0 mm 0 mps 725 mmHg 98%

    Tomorrow, 13 November, Wednesday

    Time Temperature Precipitation Wind Pressure Humidity
    00:00 +5°C° 0 mm 0 mps 725 mmHg 97%
    01:00 +5°C° 0 mm 0 mps 726 mmHg 97%
    02:00 +5°C° 0 mm 0 mps 726 mmHg 97%
    03:00 +5°C° 0 mm 0 mps 726 mmHg 96%
    04:00 +5°C° 0 mm 0 mps 726 mmHg 96%
    05:00 +5°C° 0 mm 0 mps 726 mmHg 96%
    06:00 +4°C° 0 mm 0 mps 726 mmHg 95%
    07:00 +4°C° 0 mm 0 mps 726 mmHg 95%
    08:00 +5°C° 0 mm 0 mps 726 mmHg 94%
    09:00 +6°C° 0 mm 0 mps 726 mmHg 94%
    10:00 +7°C° 0 mm 0 mps 727 mmHg 93%
    11:00 +7°C° 0 mm 0 mps 726 mmHg 93%
    12:00 +7°C° 0 mm 0 mps 726 mmHg 93%
    13:00 +8°C° 0 mm 0 mps 726 mmHg 93%
    14:00 +7°C° 0 mm 0 mps 726 mmHg 95%
    15:00 +6°C° 0 mm 0 mps 726 mmHg 96%
    16:00 +6°C° 0 mm 0 mps 726 mmHg 97%
    17:00 +5°C° 0 mm 0 mps 726 mmHg 97%
    18:00 +4°C° 0 mm 0 mps 726 mmHg 96%
    19:00 +4°C° 0 mm 0 mps 726 mmHg 96%
    20:00 +4°C° 0 mm 0 mps 726 mmHg 95%
    21:00 +3°C° 0 mm 0 mps 726 mmHg 95%
    22:00 +3°C° 0 mm 0 mps 726 mmHg 95%
    23:00 +3°C° 0 mm 0 mps 726 mmHg 95%

    Day after tomorrow, 14 November, Thursday

    Time Temperature Precipitation Wind Pressure Humidity
    00:00 +3°C° 0 mm 0 mps 726 mmHg 95%
    01:00 +3°C° 0 mm 0 mps 726 mmHg 94%
    02:00 +3°C° 0 mm 0 mps 726 mmHg 94%
    03:00 +3°C° 0 mm 0 mps 726 mmHg 94%
    04:00 +3°C° 0 mm 0 mps 725 mmHg 94%
    05:00 +3°C° 0 mm 0 mps 725 mmHg 94%
    06:00 +3°C° 0 mm 0 mps 725 mmHg 94%
    07:00 +2°C° 0 mm 0 mps 725 mmHg 94%
    08:00 +3°C° 0 mm 0 mps 725 mmHg 92%
    09:00 +4°C° 0 mm 0 mps 724 mmHg 91%
    10:00 +5°C° 0 mm 0 mps 724 mmHg 89%
    11:00 +6°C° 0 mm 0 mps 724 mmHg 89%
    12:00 +7°C° 0 mm 1 mps 723 mmHg 88%
    13:00 +8°C° 0 mm 1 mps 723 mmHg 88%
    14:00 +7°C° 0 mm 1 mps 723 mmHg 90%
    15:00 +7°C° 0 mm 1 mps 723 mmHg 92%
    16:00 +5°C° 0 mm 0 mps 722 mmHg 94%
    17:00 +6°C° 0 mm 1 mps 722 mmHg 93%
    18:00 +6°C° 0 mm 1 mps 722 mmHg 93%
    19:00 +6°C° 0 mm 1 mps 722 mmHg 92%
    20:00 +6°C° 0 mm 1 mps 722 mmHg 92%
    21:00 +6°C° 0 mm 1 mps 722 mmHg 92%
    22:00 +6°C° 0 mm 1 mps 722 mmHg 92%
    23:00 +6°C° 0 mm 1 mps 722 mmHg 92%

    15 November, Friday

    Time Temperature Precipitation Wind Pressure Humidity
    00:00 +6°C° 0 mm 1 mps 722 mmHg 92%
    01:00 +6°C° 0 mm 1 mps 722 mmHg 92%
    02:00 +6°C° 0 mm 1 mps 722 mmHg 92%
    03:00 +6°C° 0 mm 1 mps 721 mmHg 93%
    04:00 +6°C° 0 mm 1 mps 721 mmHg 93%
    05:00 +6°C° 0.1 mm 1 mps 721 mmHg 94%
    06:00 +6°C° 0.1 mm 1 mps 721 mmHg 94%
    07:00 +6°C° 0.1 mm 1 mps 721 mmHg 95%
    08:00 +7°C° 0.1 mm 1 mps 721 mmHg 94%
    09:00 +7°C° 0.1 mm 1 mps 721 mmHg 93%
    10:00 +7°C° 0.1 mm 2 mps 722 mmHg 93%
    11:00 +9°C° 0.2 mm 1 mps 722 mmHg 91%
    12:00 +9°C° 0.2 mm 1 mps 722 mmHg 90%
    13:00 +10°C° 0.2 mm 1 mps 722 mmHg 88%
    14:00 +9°C° 0.3 mm 1 mps 723 mmHg 90%
    15:00 +8°C° 0.3 mm 1 mps 723 mmHg 92%
    16:00 +8°C° 0.3 mm 1 mps 723 mmHg 94%
    17:00 +7°C° 0.1 mm 1 mps 724 mmHg 94%
    18:00 +6°C° 0.1 mm 1 mps 725 mmHg 93%
    19:00 +6°C° 0.1 mm 1 mps 726 mmHg 93%
    20:00 +5°C° 0 mm 1 mps 726 mmHg 93%
    21:00 +5°C° 0 mm 1 mps 727 mmHg 93%
    22:00 +5°C° 0 mm 1 mps 727 mmHg 92%
    23:00 +5°C° 0 mm 1 mps 728 mmHg 92%

    16 November, Saturday

    Time Temperature Precipitation Wind Pressure Humidity
    00:00 +4°C° 0 mm 1 mps 728 mmHg 92%
    01:00 +3°C° 0 mm 0 mps 729 mmHg 91%
    02:00 +3°C° 0 mm 0 mps 729 mmHg 91%
    03:00 +3°C° 0 mm 0 mps 729 mmHg 91%
    04:00 +3°C° 0 mm 0 mps 729 mmHg 91%
    05:00 +3°C° 0 mm 0 mps 729 mmHg 91%
    06:00 +3°C° 0 mm 0 mps 729 mmHg 91%
    07:00 +3°C° 0 mm 0 mps 729 mmHg 91%
    08:00 +4°C° 0.2 mm 1 mps 729 mmHg 92%
    09:00 +5°C° 0.2 mm 1 mps 729 mmHg 93%
    10:00 +6°C° 0.2 mm 1 mps 729 mmHg 93%
    11:00 +6°C° 1.1 mm 1 mps 728 mmHg 95%
    12:00 +6°C° 1.1 mm 1 mps 728 mmHg 96%
    13:00 +6°C° 1.1 mm 1 mps 727 mmHg 98%
    14:00 +6°C° 0.6 mm 1 mps 727 mmHg 97%
    15:00 +6°C° 0.6 mm 1 mps 727 mmHg 96%
    16:00 +6°C° 0.6 mm 1 mps 726 mmHg 96%
    17:00 +6°C° 0 mm 1 mps 726 mmHg 95%
    18:00 +6°C° 0 mm 1 mps 726 mmHg 94%
    19:00 +6°C° 0 mm 1 mps 726 mmHg 93%
    20:00 +6°C° 0 mm 1 mps 725 mmHg 93%
    21:00 +6°C° 0 mm 1 mps 725 mmHg 93%
    22:00 +6°C° 0 mm 1 mps 724 mmHg 93%
    23:00 +5°C° 0 mm 2 mps 724 mmHg 93%

    17 November, Sunday

    Time Temperature Precipitation Wind Pressure Humidity
    00:00 +5°C° 0 mm 2 mps 723 mmHg 93%
    01:00 +6°C° 0 mm 2 mps 723 mmHg 94%
    02:00 +7°C° 0 mm 1 mps 723 mmHg 94%
    03:00 +7°C° 0 mm 1 mps 722 mmHg 95%
    04:00 +7°C° 0 mm 1 mps 722 mmHg 95%
    05:00 +7°C° 0 mm 1 mps 722 mmHg 95%
    06:00 +7°C° 0 mm 1 mps 722 mmHg 94%
    07:00 +7°C° 0 mm 1 mps 722 mmHg 94%
    08:00 +8°C° 0 mm 1 mps 722 mmHg 94%
    09:00 +9°C° 0 mm 1 mps 722 mmHg 93%
    10:00 +10°C° 0 mm 1 mps 722 mmHg 92%
    11:00 +10°C° 0 mm 1 mps 721 mmHg 91%
    12:00 +11°C° 0 mm 1 mps 721 mmHg 89%
    13:00 +12°C° 0 mm 1 mps 721 mmHg 88%
    14:00 +11°C° 0 mm 1 mps 720 mmHg 89%
    15:00 +10°C° 0 mm 1 mps 720 mmHg 91%
    16:00 +9°C° 0 mm 1 mps 720 mmHg 92%
    17:00 +8°C° 0 mm 2 mps 720 mmHg 92%
    18:00 +8°C° 0 mm 2 mps 720 mmHg 92%
    19:00 +7°C° 0 mm 2 mps 720 mmHg 92%
    20:00 +7°C° 0 mm 2 mps 720 mmHg 92%
    21:00 +6°C° 0 mm 2 mps 720 mmHg 92%
    22:00 +7°C° 0 mm 1 mps 720 mmHg 92%
    23:00 +7°C° 0 mm 1 mps 720 mmHg 92%
    Show more